CAPE
162 54 0 0 0 0 36 0 23 145 72 193 63 145 143 672 932 804 713 756 700 1025 1718 903 436 566 770 559 679 725 713 292 1130 265 0 656 777 928 1087 1182 1382 1543 1632 1681 1897 1956 2382 2728 2727 2695 2807 2839 2883 3170 2834 2869 3204 3346 3223 3308 3328 3328 3385 3364 3368 3374 3279 3166 3166 3312 3362 3276 3219 3186 3117 3024 2994 3091 3070 2999 2797 2910 3016 2844 2944 2769 2386 2592 2955 2692 2622 2533 2679 2731 2752 2824 2672
99 6 0 0 0 158 87 30 148 233 268 24 32 421 381 786 723 760 713 732 877 1229 1296 940 676 739 1228 1049 609 509 494 830 1106 644 565 730 861 1108 1219 1357 1447 1577 1638 1801 1899 2113 2356 2744 2903 2905 3152 3124 3267 3220 2957 3132 3147 3155 3288 3316 3364 3339 3289 3358 3343 3302 3260 3182 3082 3016 2952 2981 3142 3130 3028 3150 3128 3076 2907 3043 3018 2983 2976 2840 2878 2819 2680 2600 2481 2536 2517 2501 2746 2701 2534 2786 2749
36 5 0 0 1 132 3 117 94 296 273 29 38 7 744 607 553 832 880 931 1018 1358 873 430 405 632 775 1053 773 1190 372 988 620 682 882 945 994 1122 1250 1363 1504 1582 1679 1836 1970 2161 2290 2647 2976 3123 3220 3235 3190 3141 3002 2951 3058 3249 3296 3170 3106 3179 3163 3219 3276 3277 3101 2941 2860 2774 2846 3054 3093 3073 3078 3190 3118 3110 3013 2943 2828 2624 2825 2850 2869 2873 2800 2458 2790 2580 2514 2457 2475 2585 2550 2720 2587
8 2 0 70 223 12 19 31 232 333 328 215 18 395 825 688 498 539 968 908 848 1330 895 578 591 621 566 563 672 845 619 711 707 730 792 956 917 1228 1254 1415 1744 1626 1723 1851 1989 2137 2297 2640 3076 3200 3241 3180 3127 3150 2901 3070 3280 3238 3248 3115 3198 3187 3103 3130 3160 3007 3015 2876 2796 2775 2794 2899 3018 2854 3055 3019 3142 2939 3115 3068 2841 2798 2564 2913 2765 2694 2642 2432 2583 2458 2413 2450 2795 2814 2559 2668 2582
2 9 0 72 190 255 249 413 408 545 331 17 271 308 695 813 750 910 858 1312 1334 1609 1153 831 616 660 653 584 551 468 669 725 717 841 769 1057 1183 1195 1237 1497 1578 1668 1756 1851 1978 2131 2426 2915 2966 2782 2768 2755 3162 3187 2972 3161 3120 3016 2992 3089 3111 2964 2895 3065 2991 2954 2889 2774 2787 2495 2768 2861 2843 2773 2907 2980 2896 2892 3002 3040 2921 2658 2579 2777 2804 2742 2661 2499 2489 2508 2563 2440 2505 2095 2140 2112 2246
52 150 635 335 409 206 540 257 318 319 351 753 470 939 963 982 933 742 897 1352 1561 1077 1299 1078 633 618 564 507 498 636 604 574 871 848 933 1154 1243 1139 1320 1569 1590 1702 1791 1932 2060 2178 2574 2900 2766 2629 2574 2952 3015 2860 2985 2991 2942 2927 2750 2856 2789 2724 2726 2849 2506 2499 2524 2592 2594 2776 2620 2743 2534 2756 2899 2779 2748 2774 2911 2911 2809 2833 2649 2752 2737 2706 2654 2585 2219 2373 2075 2336 2417 2478 2723 2655 2505
470 338 544 582 539 472 188 228 4 390 809 37 965 873 907 836 1162 1171 933 1026 808 1090 1299 877 527 539 673 598 506 666 829 761 900 862 1014 1211 1180 1181 1348 1440 1556 1692 1826 1965 2062 2297 2712 2859 2579 2355 2896 2884 2941 2809 2629 2862 2583 2844 2763 2749 2738 2452 2611 2507 2372 2602 2536 2629 2794 2650 2643 2582 2563 2771 2634 2670 2733 2766 2606 2708 2636 2643 2673 2577 2598 2746 2666 2509 2567 2547 2458 2401 2375 2508 2580 2699 2771
544 1029 799 509 518 358 279 289 331 498 771 772 1012 966 1022 1177 1182 1249 1074 742 803 1184 721 528 570 562 498 505 606 705 804 884 851 980 1170 1184 1127 1187 1276 1378 1495 1657 1817 1965 2105 2362 2864 2320 2363 2880 2796 2668 3008 2871 2673 2750 2626 2315 2654 2389 2463 2522 2356 2332 2282 2495 2466 2870 2856 2855 2518 2580 2360 2611 2219 2402 2654 2556 2495 2492 2583 2605 2566 2706 2762 2549 2892 2804 2836 2605 2385 2469 2519 2587 2664 2586 2684
425 472 768 977 478 600 323 359 442 870 994 912 964 951 1376 1459 1571 1086 896 786 755 993 674 497 604 543 537 671 682 695 739 791 964 1149 1138 1125 1128 1148 1234 1356 1478 1596 1746 1922 2114 2468 2666 2604 2748 2944 2782 2922 2874 2755 2758 2788 2807 2652 2302 2539 2276 2670 2484 2368 2395 2536 2534 2494 2746 2618 2526 2511 2612 2539 2231 2354 2502 2350 2633 2586 2419 2199 2376 2591 2661 2755 2692 2641 2684 2549 2652 2505 2445 2559 2501 2563 2174
206 402 805 412 645 367 134 238 551 604 876 852 874 927 1201 1293 1360 1383 1037 839 563 961 668 472 500 616 580 497 649 760 797 924 996 1060 1086 1082 1032 1076 1234 1392 1465 1572 1686 1862 2118 2498 2518 2762 2687 3000 2905 2790 2758 2674 2873 2832 2464 2422 2585 2614 2476 2426 2116 2657 2451 2468 2441 2449 2478 2599 2437 2535 2606 2251 2246 2244 2196 2330 2331 2599 2634 2597 2541 2621 2384 2616 2698 2608 2435 2531 2497 2444 2473 2291 2247 2373 2311
597 446 1325 530 224 249 332 396 844 1268 954 908 1031 868 1332 1109 1094 1144 1255 1084 654 958 357 390 470 462 511 584 605 742 806 874 973 1022 1016 941 937 1133 1302 1373 1443 1498 1634 1871 2188 2372 2525 2698 2474 2516 2482 2796 2771 2750 2608 2649 2313 2308 2513 2463 2190 2182 2202 2660 2444 2349 2490 2150 2216 2230 2375 2762 2709 2594 2228 2239 2269 2203 2284 2192 2281 2504 2544 2464 2574 2583 2420 2379 2439 2626 2628 2572 2242 2230 2214 2465 2179
669 532 639 456 438 460 462 533 666 933 920 923 1083 1363 1648 1340 1238 927 677 540 726 511 442 357 446 488 514 547 550 763 744 830 916 911 854 847 1098 1232 1290 1319 1376 1469 1697 1995 2215 2251 2419 2527 2319 2602 2803 2964 2700 2666 2404 2610 2365 2198 2451 2293 2514 2404 2692 2544 2236 2526 2396 2300 2302 2150 2249 2646 2568 2382 2293 2222 2400 2380 2216 2296 2129 2270 2350 2418 2381 2272 2248 2637 2539 2517 2470 2343 2486 2551 2484 2431 2400
639 675 556 476 553 546 532 547 799 1093 932 1024 1206 1266 1339 1123 1481 1085 993 639 630 372 383 511 344 463 382 517 666 604 648 738 791 736 759 1102 1207 1241 1264 1342 1454 1694 1915 2131 2161 2207 2352 2261 2428 2661 2847 2826 2716 2425 2131 2207 2672 2451 2210 2652 2593 2379 2099 2329 2435 2343 2321 2068 2153 2147 2630 2636 2578 2403 2396 2303 2207 2224 2323 2151 2125 2164 2387 2300 2154 2297 2512 2411 2404 2325 2084 2730 2690 2656 2373 2339 2356
540 756 505 567 481 706 592 578 620 318 875 1102 1128 1013 1164 1183 1425 1493 1168 566 435 580 412 324 412 443 536 510 610 509 457 480 569 641 943 1135 1140 1186 1314 1461 1660 1841 2005 2068 2144 2212 2257 2178 2415 2399 2188 2557 2479 2296 2506 2668 2636 2748 2856 2701 2575 2330 2278 2381 2331 2328 2198 2220 2232 2602 2591 2622 2613 2515 2401 2224 2314 2250 2200 2177 2056 1889 2053 2010 1985 2186 2164 2242 2355 2299 2335 2596 2570 2626 2576 2486 2390
716 766 582 484 492 571 576 314 8 445 335 1309 1228 1280 1368 1943 1885 1652 1244 958 765 459 411 308 421 390 409 472 478 472 339 354 520 604 1033 1115 1202 1254 1378 1531 1695 1842 1960 2065 2154 2174 2151 2149 2292 2308 2145 2227 2117 2263 2177 2644 2622 2885 2768 2585 2478 2355 2114 2250 2110 2181 2418 2401 2407 2541 2434 2480 2230 2176 2414 2291 2212 2201 2303 2039 1978 1956 2127 1861 2199 2098 2069 2305 2265 2329 2404 2503 2581 2546 2422 2554 2235
718 662 673 524 489 409 291 188 412 299 520 1466 1490 1771 1733 1572 1896 1556 1437 1794 776 623 409 389 235 690 359 420 436 414 302 392 452 818 1059 1172 1211 1264 1342 1502 1668 1793 1916 2042 2095 2129 2091 2185 2262 2204 2101 2102 2106 2224 2325 2366 2528 2742 2608 2122 2198 2503 2088 1943 2072 2387 2412 2047 2723 2809 2410 2508 2085 2154 2542 2146 2171 2246 2219 2294 2068 2062 1634 1927 1941 2135 2011 2215 2228 2349 2436 2502 2249 2254 2252 2118 2151
618 674 677 539 96 302 90 416 542 56 763 1349 1543 1717 1138 1368 1732 2122 1779 1249 567 677 551 293 264 259 432 354 445 331 305 412 497 904 1036 1061 1093 1150 1309 1459 1599 1717 1847 1964 1996 2063 2068 2171 2140 2084 2040 2008 2211 2232 2429 2514 2579 2315 2647 2501 2224 2154 2059 2388 2266 2393 2622 2510 2467 2596 2529 2333 2340 1978 2106 2092 2419 2660 2137 2191 2256 2105 1798 2159 2156 2042 2078 2123 2101 2321 2417 2563 2496 2151 2138 2128 2057
540 598 512 448 93 165 244 403 386 784 1182 1323 1425 2037 1480 1132 1463 1495 1368 997 1228 883 927 718 236 365 309 326 365 272 339 426 706 838 890 915 942 1045 1174 1337 1468 1556 1777 1875 1927 2010 2040 2113 2124 2062 2056 2055 2146 2243 2368 2421 2299 2235 2299 2102 2536 2383 2380 2308 2307 2357 2663 2474 2675 2365 2440 2658 2121 1873 2086 2205 2406 2351 2075 1975 1964 2132 2112 2237 2166 2103 2094 2130 2243 2328 2474 2538 2508 2329 2596 2244 2345
605 437 511 356 32 122 348 597 689 709 1018 1069 1525 1683 1347 1079 1764 1176 1038 1105 845 485 597 451 268 318 260 232 242 303 331 522 679 734 788 814 864 898 970 1185 1325 1439 1645 1747 1844 1933 1999 2088 2092 2044 2043 2051 2173 2264 2292 2262 2087 2164 2106 2054 2446 2556 2468 2879 2564 2558 2068 2139 2166 2292 2344 2070 2058 2343 2388 2606 2880 2409 2274 2200 2010 2181 2128 2192 2105 2075 2031 2198 2308 2394 2507 2496 2687 2445 1628 1788 2333
435 472 400 329 98 169 426 682 779 783 1227 1127 1296 1260 1820 1317 1540 1193 1284 1167 899 534 560 360 343 347 280 250 250 294 328 503 584 657 698 744 794 785 895 1059 1205 1334 1529 1628 1735 1865 1991 2043 2024 2013 1993 2039 2172 2221 2208 2077 2009 2064 2029 1999 2200 2387 2331 2299 2159 2084 2016 2017 2104 2025 1980 2073 2015 2061 2433 2351 2134 2093 1834 1894 2125 2361 2391 2130 2117 2545 2163 2302 2412 2442 2518 2920 2654 2468 2045 1773 1784
14 245 269 397 200 123 237 990 805 1104 1259 1169 999 1416 1320 1163 999 1168 1073 1101 892 550 434 387 406 338 283 281 270 200 336 409 436 557 632 689 665 671 831 993 1123 1280 1460 1522 1662 1834 1941 1967 1939 1905 1884 2040 2129 2117 2100 2040 1964 2000 2014 1987 2149 2146 2080 2082 2079 2094 1998 1972 1947 1908 1990 2018 1912 2072 2091 1999 1958 1898 1817 1888 1906 1916 2120 2489 2249 1859 2042 2522 2396 2448 2609 2208 2140 2125 2267 2262 1798
1 105 151 227 148 282 380 826 899 1232 1257 1238 1175 1121 1436 919 820 1086 894 711 728 628 387 406 396 271 276 313 271 167 270 285 337 470 575 609 548 544 726 895 1057 1234 1360 1452 1641 1815 1884 1886 1849 1812 1806 1965 2036 2054 2028 2216 1956 1940 1919 1998 2030 1941 1962 1996 2037 2027 1924 1910 1863 1958 1954 1870 1917 2024 1966 1856 1866 1806 1786 1841 1809 1856 1862 1712 1822 1872 2125 2118 2145 2217 2084 1994 2051 2088 2062 1965 1612
0 0 0 2 18 101 931 872 924 1055 1093 1098 886 795 1104 1041 897 996 724 694 669 579 480 390 388 304 235 316 258 140 193 200 258 362 497 488 441 488 670 872 1024 1119 1271 1354 1582 1697 1789 1811 1795 1748 1738 1835 1881 1972 1945 2138 1910 1907 1890 1926 1894 1800 1857 1924 1976 1916 1916 1959 1962 2053 1863 1840 1914 1921 1763 1704 1676 1641 1670 1695 1722 1773 1733 1587 1593 1702 1663 1624 1711 1771 1800 1932 2125 2147 2004 1834 1768
5 0 0 0 0 103 725 933 794 751 906 1036 776 961 1103 1066 972 999 784 809 934 482 437 427 414 326 228 269 265 121 138 148 199 299 398 381 378 483 637 837 938 1031 1164 1283 1524 1600 1675 1708 1719 1680 1715 1736 1739 1905 1859 1968 1865 1855 1849 2452 1949 1714 1773 1860 1955 1903 1901 2012 2016 2041 2197 1743 1792 1697 1594 1595 1634 1660 1645 1678 1707 1700 1643 1668 1774 1430 1406 1536 1799 1963 1874 1954 2020 1967 1877 1775 1765
0 0 0 0 0 0 205 859 735 683 850 825 845 790 895 958 934 911 875 837 767 720 677 572 505 291 225 251 211 68 75 96 150 218 276 253 277 459 603 730 847 950 1036 1252 1442 1472 1551 1596 1591 1607 1690 1632 1691 1837 1819 1881 1838 1820 1824 2044 1785 2186 1696 1801 1893 1889 1924 1991 2193 2149 2229 1677 1686 1605 1536 1572 1612 1625 1583 1600 1639 1698 1724 1814 1857 1661 1501 1720 1857 1906 1890 1798 1880 2332 2114 1924 2049
0 0 0 0 0 0 124 762 762 779 844 824 727 635 739 726 818 849 744 849 916 803 744 623 497 206 223 243 158 22 39 75 117 147 173 166 234 380 503 607 724 822 971 1189 1340 1334 1418 1493 1520 1558 1648 1587 1624 1775 1768 1811 1800 1803 1811 1917 1678 2468 1602 1703 1839 1919 2037 1993 2120 2028 1952 1632 1613 1528 1491 1522 1544 1548 1559 1569 1634 1762 1687 1662 1771 1807 1868 1790 1685 1712 1819 2045 2168 2297 1840 2412 1896
0 0 0 0 0 0 408 713 825 824 910 789 604 586 745 719 768 869 882 969 930 844 807 604 440 307 199 204 100 8 13 31 74 84 84 100 192 274 336 463 572 748 912 1136 1268 1266 1338 1426 1497 1532 1583 1535 1545 1627 1665 1718 1711 1733 1784 1835 1736 2064 1636 1696 1936 1904 2058 2059 2088 1999 1806 1612 1532 1433 1458 1508 1498 1493 1491 1456 1541 1705 1608 1777 1735 1612 1674 1743 1955 1906 2046 2017 2335 2422 2117 2253 1797
0 0 0 0 0 0 483 642 812 793 873 743 596 763 723 688 701 762 899 1024 912 847 766 694 539 413 307 146 16 3 1 0 6 28 38 65 113 157 199 189 396 670 840 1051 1200 1224 1309 1393 1511 1502 1508 1526 1528 1432 1627 1581 1535 1587 1626 1723 1742 1852 1781 1658 1875 1933 1960 2053 1993 2056 1878 1630 1696 1345 1421 1485 1542 1492 1430 1409 1552 1766 1792 1962 1996 1850 2098 2476 2315 2147 1998 2277 2223 2649 2596 2230 2027
0 0 0 0 0 0 507 668 759 782 750 674 734 697 693 716 609 479 800 1046 996 908 829 740 569 466 320 199 11 0 0 0 0 2 6 20 37 62 81 114 341 591 726 922 1100 1185 1316 1409 1498 1495 1452 1486 1537 1285 1413 1439 1398 1411 1484 1576 1617 1730 1787 1652 1805 1952 1923 1956 1915 2055 1917 1796 1644 1232 1306 1441 1853 1560 1472 1561 1629 1816 1941 1975 2037 2016 2098 2195 2158 2584 2452 2847 2253 2240 2490 2259 2407
0 0 0 0 0 0 378 680 685 688 675 572 400 363 491 610 538 476 854 918 902 878 807 673 560 463 343 141 10 0 0 0 0 0 0 0 2 10 12 64 326 481 581 744 944 1125 1313 1430 1465 1461 1401 1460 1516 1226 1284 1328 1303 1350 1419 1462 1498 1650 1656 1564 1723 1898 1966 1963 1819 1924 1908 1787 1725 1526 1159 1356 1736 1611 1528 1585 1588 1684 1870 1924 1931 2066 2037 2140 2020 2252 2320 2311 3039 2660 2165 2085 2024
0 0 0 0 0 0 125 754 725 711 664 556 244 394 313 516 600 604 818 783 760 810 740 622 532 436 134 55 36 0 0 0 0 0 0 0 0 0 1 34 236 268 459 614 804 1035 1362 1412 1434 1377 1378 1400 1622 1278 1444 1313 1284 1388 1378 1419 1379 1552 1546 1434 1557 1735 1874 1949 1825 1784 1814 1796 1796 1725 1321 1343 1628 1628 1569 1548 1554 1545 1708 1790 1762 1863 2000 2011 2024 2144 2316 2313 2548 2654 2260 2077 2263
0 0 0 0 0 0 0 662 729 714 622 559 296 257 295 423 594 684 726 699 730 779 711 599 503 423 72 70 50 0 0 0 0 0 0 0 0 0 0 16 140 186 264 485 649 931 1235 1372 1426 1370 1376 1362 1444 1393 1429 1375 1310 1384 1401 1331 1248 1428 1466 1352 1416 1578 1675 1797 1775 1592 1730 1749 1785 1703 1371 1379 1523 1573 1560 1508 1448 1471 1549 1588 1464 1614 1890 1866 2052 1984 2435 2569 2264 2275 2443 1901 1787
0 0 0 0 0 0 0 100 727 567 544 545 419 218 192 284 647 757 807 726 704 771 689 578 495 391 133 82 99 6 0 0 0 0 0 0 0 0 0 6 66 120 191 254 512 795 1122 1259 1320 1344 1369 1383 1362 1418 1465 1444 1330 1321 1460 1435 1202 1275 1355 1301 1320 1446 1527 1636 1718 1387 1474 1727 1527 1349 1180 1343 1398 1472 1505 1418 1271 1465 1622 1569 1197 1190 1397 1601 1951 1910 2114 2666 2263 1902 1744 1663 1632
0 0 0 0 0 0 0 0 616 514 558 567 573 238 195 350 698 800 845 794 718 770 646 583 501 397 95 115 151 20 0 1 0 0 0 0 0 0 0 72 29 57 112 176 349 694 969 1078 1159 1172 1258 1295 1252 1364 1477 1498 1370 1279 1375 1478 1367 1072 1203 1253 1230 1314 1368 1589 1550 1040 1077 1547 1241 1065 1106 1250 1273 1262 1283 1247 1218 1450 1668 1512 1228 1156 1032 1334 1759 1786 2011 2218 2300 2215 1936 1675 1480
0 0 0 0 0 0 0 0 0 470 570 563 579 439 307 332 700 807 878 840 834 752 630 569 510 409 160 144 205 74 4 0 15 0 0 0 0 0 0 4 8 18 57 105 298 592 771 873 1002 1158 1204 1212 1196 1356 1517 1548 1494 1351 1279 1267 1008 901 972 1088 1040 1036 1168 1396 1167 829 870 1292 1344 1066 993 1077 1016 1396 1261 1177 1138 1240 1446 1272 1241 1167 893 1161 1402 1492 1796 1957 1982 2121 2095 2015 1839
0 0 0 0 0 0 0 0 0 199 552 534 518 513 370 244 693 821 836 833 853 734 655 596 537 429 220 184 242 162 44 10 22 16 0 0 0 0 0 0 1 6 17 47 263 373 593 692 916 1104 1261 1207 1168 1335 1533 1490 1480 1310 1104 933 848 830 1039 1067 996 856 1060 938 812 898 894 1114 1169 1008 912 952 1008 1537 1238 1108 1146 1080 982 971 1019 1012 808 919 1029 1280 1471 1643 1602 1542 2215 1989 1747
0 0 0 0 0 0 0 0 0 0 82 407 417 411 389 234 547 799 820 816 756 704 679 626 562 472 324 222 275 234 124 66 52 74 19 6 0 0 0 0 0 0 4 15 180 233 223 502 791 972 1209 1261 1170 1251 1315 1236 1050 890 793 724 850 879 1098 1122 1021 867 1089 865 890 1012 873 995 998 944 875 918 1156 1571 1205 1036 1128 1162 968 1103 1152 1088 852 920 1029 1175 1208 1909 1358 1287 1262 1286 1473
0 0 0 0 0 0 0 0 0 0 0 0 0 70 266 287 382 679 805 758 746 720 661 596 570 513 403 281 269 413 198 138 118 111 83 52 0 0 0 0 0 0 0 3 87 112 118 266 608 785 1045 1261 1166 1089 1118 1075 815 746 627 704 902 1088 1109 1154 920 939 1116 970 1016 1081 851 902 903 882 1157 940 1436 1610 1285 1186 1279 1216 1446 1431 1327 1188 930 1372 1607 1041 1352 1440 2068 1734 1551 1115 1195
0 0 0 0 0 0 0 0 0 0 0 0 0 0 32 273 479 562 734 747 751 764 724 599 521 447 158 315 260 422 414 339 171 176 139 92 0 0 0 5 0 0 0 2 15 27 66 160 274 494 790 1044 1105 1055 1052 878 750 624 577 602 793 918 1040 1038 891 1030 1166 1133 1069 977 889 906 951 936 1153 1212 1473 1636 1248 1230 1380 1550 1625 1505 1406 1321 1827 1963 2032 1457 1563 1649 1894 1712 1843 1205 811
0 0 0 0 0 0 0 0 0 0 0 0 0 0 4 195 526 623 712 782 759 768 722 593 514 482 422 28 242 420 472 468 422 212 204 135 8 0 0 6 2 0 5 1 1 4 38 153 158 215 208 400 782 946 938 344 176 178 469 588 723 947 1012 1152 996 1096 1219 1408 1248 1128 1016 981 977 1034 1258 1192 1626 1728 1285 1412 1652 1783 1786 1588 1503 1299 1210 1448 1982 2250 2235 2271 2388 1097 712 189 571
0 0 0 0 0 0 0 0 0 0 0 0 0 0 49 380 583 664 720 761 730 695 639 578 546 504 441 379 312 342 428 471 464 424 230 246 72 0 0 2 3 14 25 0 0 0 19 69 100 108 108 284 415 654 651 299 552 197 86 396 566 680 917 1085 1111 1171 1316 1698 1520 1423 1318 1151 1007 1254 1463 1300 1700 1761 1434 1684 1809 1827 1777 1607 1338 1147 1228 1291 1643 2252 2515 2526 2357 847 6 4 632
0 0 0 0 0 0 0 0 0 0 0 0 0 4 80 391 596 656 724 776 720 695 653 615 608 544 488 427 371 326 358 365 113 416 232 187 114 1 0 0 0 8 34 2 0 0 6 37 70 58 57 230 380 424 424 341 498 147 28 53 284 479 846 998 1105 1077 1271 1735 1806 1666 1672 1546 1386 1605 1696 1452 1658 1832 1523 1736 2087 1973 1687 1541 1659 1782 1618 1630 1824 2164 2405 2308 1323 861 0 28 134
0 0 0 0 0 0 0 0 0 0 0 0 0 0 1 156 558 624 685 741 734 730 705 682 644 613 538 517 454 376 353 335 49 274 397 416 352 5 0 0 0 0 11 0 0 2 0 16 36 34 44 193 356 340 307 567 317 120 74 272 191 641 777 876 949 943 1199 1641 1932 1876 1926 1945 1822 1985 1995 1784 1861 1986 1632 1638 2085 2196 1859 1836 1980 2067 2118 2007 1935 2116 2286 1993 1289 1170 422 20 49
0 0 0 0 0 0 0 0 0 0 0 0 0 0 0 197 416 589 662 688 714 718 735 753 723 676 613 540 524 466 419 377 36 91 144 226 405 125 0 0 0 0 0 0 0 10 3 10 16 13 38 287 330 337 320 445 296 143 57 0 54 632 742 749 726 833 1091 1610 1984 2065 2128 2278 2252 2315 2250 2048 2237 2272 1928 1754 1821 2098 2028 1893 2116 2307 2305 2113 2014 2064 2296 2017 1506 1308 840 2 2
0 0 0 0 0 0 0 0 0 0 0 0 0 0 0 0 300 449 595 627 666 696 734 751 769 732 684 608 592 553 488 448 237 55 73 100 164 59 5 0 0 0 0 0 0 20 12 6 20 3 20 203 264 608 704 466 388 172 42 1 8 251 672 727 707 742 1134 1761 1890 2067 2217 2405 2487 2504 2473 2251 2301 2503 2595 2013 1949 2027 2393 2501 2882 2466 2401 2343 2307 2136 2226 1894 1656 1500 876 360 2
0 0 0 0 0 0 0 0 0 0 0 0 0 0 0 0 12 378 524 629 714 745 768 798 797 783 735 692 678 627 578 513 442 153 26 24 56 56 24 0 0 0 0 0 1 33 31 7 9 2 7 111 218 251 591 435 258 364 27 0 0 6 112 29 10 225 1075 1650 1756 1948 2217 2351 2485 2574 2594 2488 2312 2549 2638 2417 2141 2152 2478 2711 3006 2718 2450 2351 2598 2316 2188 1770 1262 767 435 117 2
0 0 0 0 0 0 0 0 0 0 0 0 0 0 0 0 0 393 519 672 769 769 790 832 852 838 810 774 760 709 672 599 512 446 397 7 16 46 38 9 0 0 0 0 0 34 57 15 3 1 3 82 248 241 257 289 173 251 63 3 0 0 0 0 0 27 864 1518 1681 1835 2110 2291 2385 2484 2532 2536 2425 2396 2556 2590 2403 2360 2596 2722 3091 2881 2432 2490 2683 2554 2341 1843 1375 713 1542 596 1740
0 0 0 0 0 0 0 0 0 0 0 0 0 0 0 0 0 0 556 619 644 721 810 861 893 915 905 857 825 802 751 666 584 517 478 425 342 278 49 26 0 0 0 0 0 43 114 62 19 5 1 70 220 286 252 272 180 193 110 17 0 0 0 0 0 0 266 1282 1583 1691 1875 2146 2264 2308 2375 2377 2384 2276 2372 2550 2487 2365 2693 2796 2804 2855 2644 2549 2652 2584 2372 1882 1560 1227 1184 768 1156
0 0 0 0 0 0 0 0 0 0 0 0 0 0 0 0 0 0 462 594 622 667 760 828 919 958 954 927 876 856 796 735 675 605 581 549 446 342 110 35 8 0 0 0 0 41 129 107 54 27 24 80 204 322 292 263 231 168 136 51 4 0 0 0 0 0 20 893 1335 1489 1589 1864 2054 2074 2119 2175 2212 2227 2288 2436 2457 2254 2379 2696 2670 2712 2716 2644 2634 2552 2383 2115 1679 1454 1207 985 444
0 0 0 0 0 0 0 0 0 0 0 0 0 0 0 0 0 0 0 544 614 684 730 787 877 925 935 942 929 875 863 821 733 674 662 674 586 422 290 42 24 1 0 0 0 44 146 156 80 56 76 128 211 339 338 275 282 220 132 80 23 15 0 0 0 0 0 98 885 1206 1307 1515 1794 1880 1901 2004 2104 2189 2249 2344 2394 2268 2140 2388 2532 2556 2579 2534 2551 2479 2326 2226 1885 1703 1462 1399 836
0 0 0 0 0 0 0 0 0 0 0 0 0 0 0 0 0 0 0 15 322 658 692 734 778 841 860 882 898 896 892 880 834 746 694 728 733 640 406 181 44 17 0 0 0 36 142 181 125 140 131 202 248 339 374 320 304 270 181 83 66 2 0 0 0 0 0 0 64 611 1018 1213 1432 1620 1692 1780 1946 2127 2271 2282 2327 2263 2136 2226 2333 2343 2362 2338 2425 2387 2441 2400 2156 1958 1730 1647 1432
0 0 0 0 0 0 0 0 0 0 0 0 0 0 0 0 0 0 0 0 0 474 654 701 768 772 800 814 836 879 904 917 871 809 740 773 776 750 676 431 86 52 2 0 0 23 135 189 169 161 170 273 342 437 411 389 343 302 229 116 77 93 185 71 0 0 0 0 0 171 471 974 1200 1385 1502 1522 1658 2063 2237 2270 2262 2274 2204 2231 2285 2311 2344 2318 2319 2392 2392 2445 2378 2176 2025 1894 1676
0 0 0 0 0 0 0 0 0 0 0 0 0 0 0 0 0 0 0 0 0 0 354 569 703 731 720 794 807 801 837 882 893 852 837 826 800 770 787 705 456 102 40 0 0 12 104 186 213 197 192 318 428 488 428 450 417 361 304 179 84 117 103 132 46 0 0 0 0 65 354 749 1102 1296 1415 1444 1712 2085 2279 2295 2236 2276 2261 2259 2231 2184 2180 2215 2216 2344 2335 2383 2388 2318 2156 2038 1883
0 0 0 0 0 0 0 0 0 0 0 0 0 0 0 0 0 0 51 0 0 0 0 69 430 594 650 692 747 757 810 872 911 909 907 886 848 803 808 822 699 433 324 1 0 0 65 165 232 235 251 326 483 532 470 458 482 443 392 284 114 102 116 149 126 2 0 0 0 100 320 582 1047 1286 1411 1494 1830 2052 2306 2750 2293 2268 2326 2321 2230 2016 2004 2102 2135 2262 2319 2330 2368 2285 2223 2157 2082
0 0 0 0 0 0 0 0 0 0 0 0 0 0 0 0 0 94 109 76 0 0 0 0 0 186 515 644 699 736 792 867 912 933 944 951 912 849 829 827 824 663 452 315 0 3 54 160 245 264 291 330 492 624 559 493 481 517 483 432 226 124 116 126 161 44 0 0 0 47 497 586 878 1237 1442 1531 1850 2019 2250 2474 2421 2325 2343 2391 2269 2047 1975 1997 2023 2116 2230 2297 2352 2224 2194 2228 2196
0 0 0 0 0 0 0 0 0 0 0 0 0 0 0 63 3 107 150 74 0 0 0 0 0 0 205 530 668 720 769 869 935 963 999 980 947 901 860 850 856 773 617 458 380 348 358 153 309 431 356 351 463 637 708 532 468 507 518 482 386 231 197 136 164 128 0 0 0 0 366 869 930 1176 1433 1542 1750 1964 2141 2372 2528 2438 2379 2430 2439 2261 2185 2028 1896 1939 2038 2235 2320 2240 2169 2254 2309
0 0 0 0 0 0 0 0 0 0 0 0 0 0 0 0 76 113 97 110 62 21 0 0 7 0 2 393 586 679 764 857 925 977 1005 1004 959 904 876 864 882 838 714 593 507 436 406 293 390 461 458 418 486 628 708 633 521 507 553 487 444 317 234 187 144 148 90 0 0 0 22 695 1088 1214 1433 1542 1655 1833 2014 2196 2449 2535 2491 2515 2551 2374 2312 2185 1852 1884 1931 2137 2236 2229 2177 2222 2303
0 0 0 0 0 0 0 0 0 0 0 0 0 0 0 86 83 134 115 120 108 70 65 0 0 27 0 56 550 651 735 816 918 958 995 1007 959 907 893 899 909 886 802 691 577 530 478 460 459 482 488 474 464 622 723 738 622 535 532 529 484 369 287 248 185 129 224 166 22 0 0 109 978 1218 1419 1532 1604 1701 1846 2008 2223 2461 2543 2556 2603 2526 2335 2224 1984 1904 1846 1921 2138 2262 2289 2305 2322
Wind_Speed
11 nan nan nan nan nan nan nan nan 9 nan 10 nan 4 7 8 10 13 12 14 14 14 13 8 4 7 9 10 6 3 8 5 8 6 nan 4 4 8 8 8 7 5 4 3 3 3 3 4 7 8 9 8 7 7 5 5 4 4 4 5 5 6 6 7 7 7 8 7 7 8 8 9 9 9 8 8 9 9 8 7 7 6 3 2 2 1 1 3 6 8 8 10 6 9 9 9 9
nan nan nan nan nan 7 nan nan 9 10 13 nan nan 6 9 11 12 15 13 12 13 12 12 8 6 6 8 4 3 1 6 6 8 4 2 1 4 3 8 9 8 7 3 3 2 2 1 3 6 8 8 8 7 7 6 5 5 5 4 4 4 5 5 5 6 7 7 7 7 8 8 8 8 8 7 7 7 7 6 6 5 4 2 2 2 1 2 4 5 7 8 9 9 9 9 8 7
nan nan nan nan nan 6 nan 9 nan 12 10 nan nan nan 10 11 11 13 14 10 7 8 8 5 5 9 10 7 5 7 8 4 4 4 3 7 8 6 7 8 6 5 4 2 2 2 2 3 5 7 8 8 8 7 7 6 6 5 4 5 5 5 5 5 6 6 7 7 7 8 8 7 7 8 7 6 5 5 4 4 3 2 4 4 4 3 3 5 6 6 7 8 8 7 7 7 4
nan nan nan nan 6 nan nan nan 13 11 9 7 nan 9 10 10 8 10 12 7 9 13 10 9 8 10 8 4 2 1 1 4 4 10 7 8 5 8 7 7 4 3 2 2 2 3 3 3 3 5 7 8 8 8 8 7 6 6 5 6 6 6 6 6 6 7 7 6 7 7 7 7 7 8 6 5 4 3 3 2 2 3 5 4 3 3 4 6 5 5 7 8 8 7 7 8 9
nan nan nan nan 6 8 10 10 10 9 7 nan 10 11 9 8 6 7 9 9 9 12 11 8 7 11 9 2 6 6 6 3 4 5 6 0 3 7 6 4 3 3 2 2 2 3 3 4 3 5 6 9 8 9 9 8 7 7 7 7 7 7 7 6 6 6 6 5 5 6 6 6 7 7 5 4 2 2 2 2 3 5 5 5 4 5 4 4 4 5 6 7 7 6 4 5 6
nan 7 7 4 6 8 10 10 9 8 7 3 9 9 7 6 4 5 6 7 7 11 11 8 8 8 6 6 8 4 10 9 4 2 7 3 7 8 6 3 3 2 1 2 3 4 4 4 5 6 9 7 7 9 9 8 8 7 8 8 8 7 6 5 3 3 4 4 3 4 5 4 4 6 5 3 2 2 2 2 3 5 5 5 5 4 4 3 4 5 5 4 3 2 2 3 4
5 3 4 8 10 10 10 11 nan 7 4 nan 8 9 7 8 3 5 7 6 5 9 13 7 3 4 4 7 0 1 6 9 7 6 2 8 5 6 6 3 2 2 1 3 4 4 4 5 7 8 6 6 7 8 8 8 8 8 9 9 8 8 8 7 4 5 4 4 3 2 2 1 2 4 4 3 2 3 3 3 4 5 5 5 4 4 3 3 3 3 4 3 2 2 3 3 4
0 1 6 8 10 12 10 10 10 8 7 7 8 7 8 7 3 7 5 4 3 7 9 7 9 4 4 6 3 4 3 3 8 5 8 8 4 4 5 3 2 1 1 4 5 5 4 7 7 5 6 7 7 7 8 8 9 9 9 9 8 10 9 9 9 6 6 6 6 6 5 5 2 1 2 2 2 5 3 4 4 4 4 4 3 4 3 2 3 3 3 2 2 3 4 5 5
1 3 6 8 10 12 10 9 7 5 7 6 5 8 6 8 7 6 4 7 3 8 10 8 9 3 6 1 2 5 3 10 10 8 7 8 5 4 3 4 3 1 2 4 5 6 5 6 6 6 6 7 8 8 8 8 9 10 11 11 12 11 10 9 9 10 10 9 9 8 8 6 4 3 2 1 3 3 3 2 4 4 4 3 3 3 2 3 3 1 1 2 4 5 5 6 6
1 5 4 6 7 9 8 8 4 5 6 4 1 3 4 8 9 8 4 5 3 7 7 8 7 5 5 4 5 5 6 13 12 7 7 7 5 3 4 5 4 3 2 5 6 7 7 6 7 7 8 8 8 8 8 9 11 10 10 10 10 11 10 10 11 11 11 10 11 11 10 8 7 6 2 1 3 4 2 2 4 4 4 3 4 2 2 3 2 1 2 4 5 5 5 6 6
4 5 4 5 7 8 6 6 5 5 4 5 1 2 5 7 8 7 8 5 6 2 1 3 2 5 3 4 6 5 11 14 13 11 8 8 6 3 3 3 3 2 3 5 7 8 8 7 8 8 8 8 7 8 9 10 10 10 11 11 12 11 11 12 12 13 14 13 13 14 13 10 9 7 4 3 0 2 2 2 4 4 4 4 3 1 3 3 2 2 3 5 6 5 4 6 6
5 4 4 6 7 8 9 6 5 6 4 5 4 4 7 6 7 4 4 5 9 6 4 5 7 4 3 4 6 8 12 13 12 11 9 6 3 3 2 2 1 0 4 5 7 9 8 7 8 7 8 7 7 8 7 10 10 11 12 12 12 12 13 14 12 15 15 16 16 17 16 12 9 7 6 4 4 3 3 4 5 4 4 3 2 2 3 3 1 2 3 5 5 5 5 6 7
5 6 4 4 7 7 8 7 5 6 7 3 5 7 6 5 8 6 7 7 11 8 3 4 10 7 0 4 4 7 12 13 13 14 9 4 3 2 1 2 2 1 4 7 8 9 8 9 10 10 7 8 8 9 10 10 11 13 12 12 13 14 13 14 15 17 18 20 22 20 16 13 10 7 6 5 3 1 3 5 6 6 3 1 2 3 3 3 1 2 3 3 5 5 4 5 5
7 6 5 3 5 6 7 8 7 4 3 4 6 7 6 7 9 7 7 6 5 3 3 8 4 2 4 1 5 8 11 14 16 12 7 5 2 2 1 3 3 4 6 8 10 10 10 11 11 11 9 12 11 10 11 11 13 11 12 13 14 14 13 13 17 18 19 20 19 17 16 15 12 9 8 5 4 2 2 3 4 6 5 4 3 3 3 3 2 1 2 3 4 5 5 6 5
4 6 5 3 3 4 5 5 nan 7 6 7 9 8 7 8 5 5 9 4 9 5 6 3 5 0 9 11 9 13 13 16 14 11 9 5 3 2 2 4 5 7 8 10 11 11 12 12 12 11 10 12 12 13 13 12 12 11 12 13 13 13 13 17 18 19 17 16 15 16 17 16 13 12 10 6 5 3 2 2 4 5 9 4 4 3 3 3 2 1 2 2 4 4 5 5 4
6 6 5 2 3 4 4 3 4 5 7 7 8 8 2 4 4 3 9 11 8 7 5 2 10 6 8 7 8 12 14 15 10 12 10 6 2 2 3 5 8 9 11 11 12 13 13 13 13 12 12 12 13 14 12 12 11 11 12 13 12 13 16 16 17 15 15 14 13 14 15 15 14 12 10 9 8 6 5 4 5 6 6 4 5 4 3 3 3 2 2 3 3 3 2 1 0
8 5 2 1 nan 4 nan 4 6 nan 7 6 6 9 6 6 4 6 6 10 8 6 5 5 7 3 11 4 12 13 14 12 10 12 10 4 2 4 6 8 10 11 12 12 14 14 13 13 13 13 13 12 13 13 11 11 10 11 11 12 14 14 15 15 13 13 13 13 12 13 12 12 13 12 12 12 10 10 7 7 7 8 4 5 5 5 4 4 3 2 3 4 4 3 3 4 2
9 5 4 3 nan 4 5 4 5 5 7 6 7 10 6 7 8 3 2 7 10 10 7 5 4 0 3 10 11 12 13 11 13 13 9 5 4 5 6 9 10 12 12 13 14 14 13 14 14 13 13 13 12 12 11 10 8 11 9 10 11 12 13 12 11 12 12 13 12 12 13 13 13 14 14 14 15 13 11 11 10 5 5 5 6 6 5 5 4 3 3 3 4 4 4 6 5
7 7 4 3 nan 3 4 3 6 5 7 8 8 10 9 7 7 7 2 6 8 7 8 3 5 3 6 10 14 14 13 13 13 11 12 10 5 6 7 9 11 12 12 13 15 14 14 14 14 13 13 12 11 11 11 9 8 9 8 10 11 12 9 10 10 10 11 12 12 13 14 14 14 15 15 16 15 14 13 14 11 7 6 6 7 8 7 6 5 4 3 2 4 7 7 7 5
7 8 3 3 nan 1 2 4 6 2 6 8 8 10 7 5 5 6 6 4 6 6 1 2 3 5 9 11 13 14 12 14 13 11 11 10 6 6 7 9 11 13 12 13 14 15 13 14 14 13 11 11 11 11 9 8 7 8 8 9 8 8 8 9 9 9 10 10 11 12 14 15 16 17 17 18 16 16 14 15 9 8 7 7 8 11 10 8 7 6 4 5 8 7 8 7 7
nan 8 3 1 3 5 4 2 3 3 9 8 8 6 3 6 4 5 3 1 8 8 5 8 11 10 11 13 13 10 13 14 12 11 9 8 7 6 7 10 11 12 12 13 14 14 14 13 12 12 11 10 10 10 9 7 7 7 8 8 8 8 8 9 9 9 10 10 11 12 14 15 16 16 17 16 18 16 16 14 15 14 14 13 11 14 15 14 12 12 11 9 9 9 8 8 7
nan 4 0 5 11 8 6 2 4 5 3 6 6 7 6 1 2 6 9 8 9 10 7 4 8 13 15 15 11 7 13 13 13 11 11 10 8 7 7 10 12 11 11 12 13 13 14 13 12 11 10 10 10 10 8 8 6 7 8 8 7 8 9 9 10 10 10 11 11 12 13 14 15 16 16 16 17 16 15 15 14 14 13 13 13 13 14 13 13 12 11 10 10 9 9 9 9
nan nan nan nan nan 8 10 7 6 7 4 5 8 9 2 5 6 6 11 9 6 3 4 6 8 10 13 12 8 8 11 13 13 13 11 10 7 6 8 9 10 11 11 12 12 13 13 12 11 9 8 8 9 9 8 7 7 8 8 8 8 9 10 10 10 10 10 11 11 12 12 14 15 16 16 16 16 15 14 15 14 14 14 14 14 13 13 13 12 12 11 11 12 11 11 10 11
nan nan nan nan nan 4 8 7 8 3 6 4 3 4 5 6 5 5 8 8 3 5 5 8 7 8 11 11 7 9 11 13 14 12 10 10 8 7 7 9 11 11 11 10 11 12 12 11 10 8 7 7 8 9 8 7 8 8 9 9 8 10 10 11 11 11 10 11 12 12 13 13 14 15 16 16 16 15 16 16 15 15 15 16 16 13 13 13 13 13 13 13 13 13 12 11 12
nan nan nan nan nan nan 7 10 7 3 4 4 1 5 8 8 3 6 9 9 4 7 4 7 9 9 9 8 8 nan nan nan 11 10 7 7 6 4 6 9 10 10 10 10 10 10 11 10 8 7 6 7 7 8 9 8 8 9 10 9 9 10 10 11 11 10 11 12 12 12 12 12 13 13 14 15 15 15 17 17 17 17 17 18 16 16 15 14 14 13 14 15 15 15 13 12 13
nan nan nan nan nan nan 8 11 11 6 5 2 1 5 3 4 2 6 6 6 5 8 7 8 10 10 9 8 8 nan nan nan 11 10 9 7 6 4 6 8 9 10 11 9 9 10 9 9 8 7 7 7 7 8 9 9 9 10 11 11 10 9 9 9 9 10 11 11 11 11 11 12 13 13 13 14 14 15 16 17 17 17 17 18 16 16 17 16 15 15 15 15 14 14 13 14 13
nan nan nan nan nan nan 10 14 12 10 5 6 3 2 2 4 3 4 1 4 4 8 10 10 11 12 10 8 6 nan nan nan nan nan nan 7 7 6 6 8 9 10 9 9 9 10 9 8 8 7 7 7 7 9 9 10 10 11 11 10 10 10 8 8 9 10 10 10 11 11 10 12 12 12 11 12 13 14 15 15 16 16 15 16 16 16 16 16 16 16 15 15 14 14 13 15 14
nan nan nan nan nan nan 8 11 14 13 7 3 6 7 4 2 7 5 4 7 9 10 11 13 13 12 10 10 nan nan nan nan nan nan nan nan 8 7 6 7 10 9 9 9 9 9 9 9 9 8 8 7 8 9 9 10 12 12 10 10 10 10 8 9 10 9 9 10 10 11 11 11 11 12 11 11 12 12 13 14 14 14 14 14 14 14 14 15 16 16 15 15 14 13 13 14 15
nan nan nan nan nan nan 10 9 11 12 9 7 10 12 5 1 7 2 8 9 12 12 12 14 14 12 11 12 nan nan nan nan nan nan nan nan nan nan nan 7 7 8 10 9 7 8 9 9 8 8 8 8 8 9 10 11 11 12 10 10 10 10 10 9 10 9 9 9 10 10 11 11 11 11 11 11 11 12 12 13 13 13 13 13 13 14 14 15 16 15 14 14 14 14 15 16 15
nan nan nan nan nan nan 4 8 10 9 10 12 10 8 7 6 8 2 10 10 12 11 11 12 11 11 11 13 nan nan nan nan nan nan nan nan nan nan nan nan 6 8 8 9 6 8 7 6 6 7 8 9 9 9 10 10 11 11 11 10 11 10 9 9 9 8 8 9 9 9 10 11 10 11 10 10 9 11 12 13 13 12 12 12 13 14 14 15 16 16 16 15 15 15 16 17 17
nan nan nan nan nan nan 11 8 11 8 8 11 4 7 8 4 6 1 11 12 15 13 11 11 11 11 12 nan nan nan nan nan nan nan nan nan nan nan nan nan 6 7 7 7 7 7 6 5 5 6 9 9 10 10 10 10 10 10 10 10 11 11 9 8 8 8 8 9 9 9 9 10 10 10 11 10 10 11 12 14 14 13 13 13 13 15 14 14 15 16 17 16 16 16 16 18 18
nan nan nan nan nan nan nan 10 11 8 12 2 7 11 5 3 4 2 11 12 13 12 11 11 11 11 nan nan nan nan nan nan nan nan nan nan nan nan nan nan 5 6 5 5 5 5 6 5 5 7 8 9 10 10 11 10 9 9 9 10 10 10 8 8 8 8 7 7 8 9 9 10 9 10 10 10 10 12 13 15 15 13 14 13 15 15 15 13 15 15 18 17 18 19 17 19 18
nan nan nan nan nan nan nan 10 6 6 14 4 2 7 12 11 3 3 9 12 12 12 12 10 11 13 13 nan nan nan nan nan nan nan nan nan nan nan nan nan nan 5 5 3 3 5 6 5 6 8 9 10 9 10 10 10 8 8 9 10 10 10 8 8 7 6 6 8 8 9 9 10 10 10 10 10 11 12 13 15 15 14 14 14 15 16 15 14 14 16 17 18 17 18 18 19 20
nan nan nan nan nan nan nan nan 14 14 14 9 8 9 8 10 3 4 7 10 10 10 13 12 10 9 nan 11 8 nan nan nan nan nan nan nan nan nan nan nan nan nan 5 3 2 4 6 5 5 7 8 8 8 8 9 10 9 7 8 9 9 10 9 7 7 6 7 8 9 9 10 10 10 10 10 10 11 13 14 14 14 14 14 15 15 15 16 15 15 16 18 19 17 18 19 19 20
nan nan nan nan nan nan nan nan nan 18 14 10 6 8 9 12 4 5 6 8 9 9 12 13 12 10 10 10 8 nan nan nan nan nan nan nan nan nan nan nan nan nan nan 2 2 3 3 4 4 6 7 7 7 6 7 9 8 7 8 9 9 10 8 7 7 7 7 7 9 9 9 10 10 10 10 10 10 13 13 15 15 15 15 15 16 16 16 16 16 16 18 19 19 19 19 19 18
nan nan nan nan nan nan nan nan nan 19 19 16 10 7 8 10 4 3 0 5 7 7 7 8 10 9 9 10 9 9 nan nan nan nan nan nan nan nan nan nan nan nan nan nan 2 3 2 2 3 4 5 6 4 4 5 7 7 6 7 9 10 10 8 7 7 8 7 7 8 9 9 9 10 10 10 10 10 12 14 15 15 15 15 15 16 17 17 17 17 16 18 19 21 21 20 18 18
nan nan nan nan nan nan nan nan nan nan nan 13 9 8 8 7 3 1 2 3 4 5 7 8 9 10 9 9 10 10 12 nan nan nan nan nan nan nan nan nan nan nan nan nan 3 3 3 2 2 4 4 4 3 4 5 5 5 5 6 8 10 9 7 7 6 7 8 8 8 9 9 8 9 9 10 9 11 13 15 15 15 14 14 15 17 18 17 18 18 16 16 18 19 20 20 17 17
nan nan nan nan nan nan nan nan nan nan nan nan nan nan 7 6 5 2 2 4 9 10 10 11 12 10 9 11 11 12 11 7 9 8 nan nan nan nan nan nan nan nan nan nan nan 2 4 3 3 3 3 5 5 5 5 5 5 5 5 7 8 8 7 6 6 8 9 9 8 8 9 8 7 8 9 9 12 13 15 15 15 14 15 15 16 16 16 18 17 16 16 17 18 18 20 18 16
nan nan nan nan nan nan nan nan nan nan nan nan nan nan nan 9 7 2 5 10 9 11 14 14 13 10 7 8 10 10 8 8 10 11 9 nan nan nan nan nan nan nan nan nan nan nan nan 4 4 3 4 5 5 4 4 4 5 5 4 5 5 8 10 7 7 7 8 8 7 8 8 7 7 8 8 9 12 14 15 15 15 14 15 15 15 16 16 17 16 16 17 17 18 17 19 18 15
nan nan nan nan nan nan nan nan nan nan nan nan nan nan nan 16 15 5 5 7 6 9 11 10 9 10 7 nan 9 9 10 9 12 13 12 9 nan nan nan nan nan nan nan nan nan nan nan 4 5 4 4 4 4 4 4 5 4 6 7 3 5 5 7 9 11 10 9 8 8 8 9 7 7 8 8 9 12 13 14 15 14 14 15 16 15 15 16 17 15 15 16 17 17 19 18 18 14
nan nan nan nan nan nan nan nan nan nan nan nan nan nan nan 22 18 15 12 10 7 4 5 5 4 4 3 1 4 6 10 11 12 13 12 10 nan nan nan nan nan nan nan nan nan nan nan nan 3 3 5 5 4 3 3 4 4 6 nan 10 8 10 12 9 11 11 10 9 8 8 9 7 7 9 9 10 11 13 14 14 14 14 15 15 15 15 16 17 16 14 14 15 16 17 nan nan 16
nan nan nan nan nan nan nan nan nan nan nan nan nan nan nan 18 11 8 12 10 9 4 6 7 6 3 1 2 6 6 7 8 12 15 15 13 10 nan nan nan nan nan nan nan nan nan nan nan nan nan nan 6 4 2 2 3 3 2 nan nan 5 6 7 7 8 8 9 8 8 9 8 7 7 9 9 10 12 12 13 14 14 14 15 15 15 16 16 16 16 14 15 15 16 16 nan nan 15
nan nan nan nan nan nan nan nan nan nan nan nan nan nan nan 24 16 17 16 9 8 4 7 6 5 5 2 3 3 3 5 6 nan 11 13 13 12 nan nan nan nan nan nan nan nan nan nan nan nan nan nan 6 4 2 1 2 2 3 nan 3 4 5 5 9 10 10 8 9 8 6 8 7 7 8 9 10 11 12 12 13 13 14 14 14 15 15 15 16 16 15 15 15 16 14 14 nan nan
nan nan nan nan nan nan nan nan nan nan nan nan nan nan nan 23 17 18 17 14 12 9 6 6 5 6 6 4 3 2 3 4 nan nan 12 13 13 12 nan nan nan nan nan nan nan nan nan nan nan nan nan 5 5 3 1 2 2 3 nan nan nan 6 5 7 7 8 9 8 7 7 7 7 7 8 8 9 10 10 10 12 12 12 13 13 13 14 15 16 15 16 15 15 14 13 13 nan nan
nan nan nan nan nan nan nan nan nan nan nan nan nan nan nan nan 21 19 19 18 16 13 9 9 10 9 6 5 4 4 4 3 4 nan nan nan 13 nan nan nan nan nan nan nan nan nan nan nan nan nan nan 3 4 2 0 3 2 2 nan nan nan 7 7 7 7 7 7 7 7 7 6 6 7 8 9 9 9 9 8 9 10 11 11 12 12 12 13 13 14 14 13 13 14 14 13 13 nan
nan nan nan nan nan nan nan nan nan nan nan nan nan nan nan nan nan 21 21 17 11 9 10 10 11 10 5 2 2 2 1 2 2 5 nan nan nan nan nan nan nan nan nan nan nan nan nan nan nan nan nan 3 4 3 1 2 3 2 nan nan nan nan 7 nan nan 7 7 6 5 5 5 5 6 7 8 9 8 8 8 8 8 9 10 10 10 10 11 11 12 12 12 12 12 13 14 11 nan
nan nan nan nan nan nan nan nan nan nan nan nan nan nan nan nan nan 22 22 9 2 4 6 5 5 4 4 3 4 3 1 1 2 3 5 nan nan nan nan nan nan nan nan nan nan nan nan nan nan nan nan nan 3 2 1 2 3 3 nan nan nan nan nan nan nan nan 8 7 6 5 4 5 5 6 6 7 8 7 7 7 7 8 8 8 9 9 9 10 10 10 11 10 11 11 12 12 13
nan nan nan nan nan nan nan nan nan nan nan nan nan nan nan nan nan nan 13 4 3 0 0 4 5 7 7 6 6 7 5 0 2 1 3 5 6 9 nan nan nan nan nan nan nan nan 2 nan nan nan nan nan 4 3 2 1 2 3 3 nan nan nan nan nan nan nan 7 6 6 6 5 4 5 6 5 6 7 7 7 7 7 6 7 7 8 8 8 8 9 9 9 9 11 12 12 11 11
nan nan nan nan nan nan nan nan nan nan nan nan nan nan nan nan nan nan 14 8 4 2 3 2 2 7 8 4 6 7 7 4 1 0 0 4 8 10 11 nan nan nan nan nan nan nan 2 3 nan nan nan nan 5 4 3 2 3 4 3 nan nan nan nan nan nan nan nan 7 7 6 5 5 5 5 6 6 7 7 6 6 6 6 7 7 7 6 7 6 7 7 7 8 9 9 11 10 10
nan nan nan nan nan nan nan nan nan nan nan nan nan nan nan nan nan nan nan 7 6 4 4 6 2 3 2 2 4 5 6 7 6 2 1 3 5 7 9 nan nan nan nan nan nan nan 3 1 nan nan nan 3 5 6 5 5 4 4 4 nan nan nan nan nan nan nan nan nan 7 7 6 6 5 6 6 8 8 6 6 7 7 7 7 6 6 6 5 4 4 5 5 6 7 9 10 10 11
nan nan nan nan nan nan nan nan nan nan nan nan nan nan nan nan nan nan nan nan 10 10 11 14 10 7 8 8 9 6 4 5 5 2 3 3 4 5 6 7 nan nan nan nan nan nan 6 4 2 1 2 2 3 4 6 5 6 6 6 nan nan nan nan nan nan nan nan nan nan 7 7 7 6 6 6 7 7 7 7 7 8 8 7 7 6 6 5 4 4 5 5 6 7 8 9 10 11
nan nan nan nan nan nan nan nan nan nan nan nan nan nan nan nan nan nan nan nan nan 19 19 20 16 10 10 14 13 11 9 5 4 1 2 2 2 4 5 5 nan nan nan nan nan nan 9 8 6 4 2 1 3 4 5 5 6 8 8 6 nan nan 5 nan nan nan nan nan nan 7 7 7 6 5 5 5 6 5 6 7 7 7 7 7 6 6 5 5 5 4 6 7 7 8 8 9 10
nan nan nan nan nan nan nan nan nan nan nan nan nan nan nan nan nan nan nan nan nan nan 27 22 17 13 12 11 12 10 9 9 7 2 1 0 3 3 4 5 4 5 nan nan nan nan 11 10 8 7 3 1 2 3 4 5 6 8 9 8 nan 6 5 4 nan nan nan nan nan nan 6 6 6 6 5 4 4 5 5 5 6 6 6 6 6 7 6 5 5 5 5 6 7 7 7 8 9
nan nan nan nan nan nan nan nan nan nan nan nan nan nan nan nan nan nan nan nan nan nan nan nan 20 16 13 7 8 10 8 6 4 2 3 4 4 3 4 3 5 7 8 nan nan nan nan 9 10 10 6 3 1 4 4 5 6 6 8 9 8 7 6 6 6 nan nan nan nan nan 8 7 6 6 5 4 3 3 5 5 5 6 5 4 5 6 6 6 4 5 5 6 7 6 6 8 8
nan nan nan nan nan nan nan nan nan nan nan nan nan nan nan nan nan nan 59 nan nan nan nan nan nan 21 10 3 1 3 3 4 6 7 6 4 3 3 4 4 5 5 6 7 nan nan nan 6 9 11 12 9 4 4 5 6 6 8 9 9 9 10 10 9 8 nan nan nan nan nan 7 6 7 7 6 5 3 3 3 5 5 5 4 4 4 5 6 6 5 4 5 5 7 7 7 7 7
nan nan nan nan nan nan nan nan nan nan nan nan nan nan nan nan nan 51 55 nan nan nan nan nan nan nan 17 9 5 4 4 4 6 8 8 5 2 3 4 5 5 4 5 6 7 5 6 7 8 9 10 9 7 3 4 5 5 7 9 10 11 11 11 10 9 8 nan nan nan nan 7 8 6 6 5 5 4 3 3 3 4 5 4 3 3 5 5 6 5 5 4 4 5 5 6 7 7
nan nan nan nan nan nan nan nan nan nan nan nan nan nan nan nan nan 53 nan 58 nan nan nan nan nan nan nan 17 12 9 7 5 4 8 11 8 4 2 3 6 7 7 9 9 6 5 4 3 6 9 10 10 9 6 3 4 7 7 8 8 9 11 11 12 11 10 nan nan nan nan nan 7 9 6 5 4 4 4 3 4 4 4 5 4 3 4 5 5 5 6 5 4 4 4 5 7 7
nan nan nan nan nan nan nan nan nan nan nan nan nan nan nan nan nan 54 57 59 57 nan nan nan nan nan nan nan 18 14 9 6 5 9 11 11 8 3 3 7 11 13 12 8 6 6 5 3 5 7 8 9 11 8 4 3 7 9 7 8 10 12 12 13 12 12 10 10 nan nan nan 10 7 6 6 3 3 4 3 3 3 4 4 4 4 4 5 5 5 5 5 3 3 3 5 6 6
Wind_Direction
40 nan nan nan nan nan nan nan nan 36 nan 30 nan 42 81 76 89 93 111 116 114 121 117 107 83 91 95 91 89 141 146 17 101 46 nan 71 15 345 356 347 345 337 350 51 82 21 348 343 338 337 331 328 331 333 347 0 10 7 359 344 331 328 322 313 302 290 285 281 282 282 283 284 284 283 279 274 274 272 274 277 278 279 267 227 213 239 288 305 307 293 296 300 323 316 315 314 317
nan nan nan nan nan 51 nan nan 47 45 33 nan nan 67 94 107 106 107 103 111 119 118 115 115 131 129 122 131 28 32 152 113 74 67 124 338 326 22 6 349 349 343 354 50 66 50 68 26 356 346 339 335 345 353 5 16 18 14 7 347 338 333 325 307 292 283 280 282 282 281 278 280 280 278 275 273 269 269 269 266 272 270 241 205 211 248 303 303 296 298 309 313 326 322 326 324 323
nan nan nan nan nan 46 nan 38 nan 46 51 nan nan nan 104 109 114 125 125 131 126 103 98 136 144 132 117 133 123 119 82 91 349 348 339 342 323 38 18 356 354 340 339 66 76 83 99 69 10 354 352 351 357 5 14 22 25 18 8 356 352 345 330 314 301 298 297 297 293 286 285 284 280 279 276 270 268 270 272 268 262 235 208 201 211 242 283 293 288 305 298 305 322 334 329 325 337
nan nan nan nan 26 nan nan nan 43 52 68 73 nan 101 112 121 132 123 117 126 116 102 98 107 119 111 118 171 93 253 346 32 62 337 335 9 53 1 16 354 352 335 346 60 88 116 119 32 17 7 5 4 7 14 23 25 25 13 6 3 2 353 344 339 326 321 314 307 298 290 281 278 277 274 275 278 282 289 286 282 230 204 205 211 226 254 280 297 301 299 314 319 331 355 352 346 354
nan nan nan nan 22 31 34 46 49 51 78 nan 104 102 109 122 116 103 117 113 106 102 106 93 108 127 98 44 69 59 31 306 25 85 314 171 5 347 357 351 343 341 351 67 117 125 108 4 18 11 12 6 12 20 26 27 23 12 10 10 6 3 357 350 343 331 317 312 303 290 277 271 267 267 269 280 283 277 270 240 202 198 208 215 230 241 256 277 293 305 318 334 343 356 2 3 1
nan 28 39 33 21 26 37 50 48 67 71 70 100 101 103 102 97 96 83 96 106 112 114 94 94 75 107 110 86 44 332 345 10 81 324 332 3 342 336 352 340 346 10 110 135 131 116 7 20 9 14 0 13 21 24 25 18 14 15 18 13 11 4 360 343 342 320 316 299 274 268 251 268 275 270 261 264 248 237 220 208 204 212 216 229 244 260 279 316 329 333 333 340 351 14 47 63
357 359 33 23 42 24 29 51 nan 58 60 nan 106 107 97 95 82 68 60 63 116 121 107 94 39 38 92 66 84 52 11 323 342 30 349 313 358 336 330 355 341 348 18 121 136 129 100 12 16 15 10 10 19 23 26 21 19 18 22 20 17 22 12 8 4 11 351 352 353 345 301 314 325 274 260 248 247 251 239 228 216 220 221 227 240 258 271 308 305 308 323 348 25 46 57 84 95
291 34 4 29 40 24 33 56 55 35 69 96 116 109 103 102 114 84 88 94 113 131 106 62 68 59 104 91 13 46 6 327 311 338 305 304 3 335 329 351 346 7 64 129 129 123 62 13 20 24 24 19 20 23 24 24 27 26 23 30 24 28 23 12 16 16 21 20 25 36 25 21 14 275 237 211 218 244 233 236 244 241 239 240 251 267 286 305 297 311 345 31 91 91 99 107 117
341 10 29 38 38 25 40 44 37 39 67 94 132 116 129 131 121 94 122 121 145 133 95 64 56 63 63 39 59 20 339 305 312 329 310 313 5 349 359 2 353 51 105 114 119 122 107 32 36 28 25 26 21 21 22 25 35 36 26 31 27 29 31 24 20 19 29 28 35 43 43 28 22 30 47 192 214 235 228 249 265 268 264 266 265 271 275 259 268 298 62 110 110 104 115 131 121
347 13 358 13 30 26 44 57 22 51 76 113 31 66 131 135 136 128 112 125 107 98 88 97 97 354 356 344 6 18 357 319 323 327 313 330 11 13 359 7 351 351 108 117 121 123 117 49 28 32 28 26 25 25 26 33 37 41 41 38 38 35 34 30 31 26 35 40 44 43 44 36 35 35 33 203 181 195 185 227 249 258 264 272 266 254 235 247 254 225 125 124 125 132 123 117 106
319 338 354 17 21 18 23 73 40 32 70 99 23 86 120 123 128 141 129 121 109 136 269 278 143 350 3 94 88 10 336 328 333 331 332 348 18 15 22 25 342 11 98 112 120 122 121 105 31 28 32 30 31 38 40 44 46 44 49 44 41 39 32 32 30 34 31 37 45 50 44 38 41 43 31 7 205 102 112 209 236 248 265 276 286 295 245 241 232 175 137 152 148 131 130 128 125
295 313 336 5 20 8 19 37 52 11 349 102 140 97 120 109 128 132 93 49 78 5 346 71 62 32 243 64 57 1 345 341 335 328 339 3 27 10 21 83 6 129 117 112 118 126 121 116 94 46 36 41 48 51 51 64 49 48 49 45 43 36 33 31 29 38 31 35 44 42 40 37 39 41 45 35 42 78 162 185 196 214 232 248 267 251 238 250 239 155 157 153 144 138 147 138 129
284 289 326 353 15 2 15 21 43 4 358 90 103 119 145 124 120 98 81 97 87 335 338 103 355 86 13 66 63 3 359 351 339 334 341 7 20 43 60 99 105 144 113 116 116 118 116 116 113 101 86 46 56 64 55 57 59 49 46 45 44 41 28 35 29 33 30 29 36 36 37 40 40 44 51 46 69 92 173 181 174 159 173 177 219 230 243 251 242 154 152 141 135 137 133 108 112
287 309 315 41 356 6 12 17 27 29 36 1 97 87 95 107 113 95 75 72 71 152 261 325 83 309 260 344 40 36 20 355 344 335 327 341 23 55 40 110 113 120 114 111 114 114 114 114 113 119 114 112 111 87 75 53 58 49 47 48 47 42 30 30 43 35 36 36 33 34 39 41 40 46 50 52 54 104 139 177 171 135 131 147 188 208 234 241 236 182 157 142 131 121 124 120 112
293 282 288 345 28 335 13 359 nan 13 17 24 37 45 74 134 117 108 84 76 141 147 284 184 20 132 51 21 16 38 23 360 352 320 319 335 358 44 86 114 120 121 113 109 112 112 113 116 115 117 112 119 113 109 102 84 50 47 47 49 49 43 37 29 35 36 33 36 36 37 39 38 39 38 48 53 51 52 96 111 145 122 117 138 154 175 208 216 229 224 176 143 124 123 127 129 146
285 266 285 329 19 319 45 346 16 355 14 27 27 38 26 116 119 100 116 122 124 124 325 39 86 97 22 85 6 12 9 4 348 315 314 324 9 89 110 116 117 115 113 108 109 116 116 117 116 118 119 112 108 104 101 96 67 46 47 47 42 46 44 35 34 34 32 30 37 40 37 46 46 53 46 61 54 42 52 94 64 88 84 116 139 157 172 187 205 212 191 166 144 143 145 124 155
262 261 250 322 nan 319 nan 354 358 nan 17 23 51 31 41 39 83 156 131 120 75 67 104 10 82 98 7 12 351 357 7 7 330 315 314 336 80 102 120 123 117 113 113 109 114 116 116 116 116 117 114 109 106 106 107 104 86 50 57 46 40 40 44 41 36 40 38 38 41 42 49 71 75 72 66 81 64 82 62 58 66 73 94 128 140 143 150 162 171 194 190 175 167 168 196 212 208
256 280 280 82 nan 321 17 7 9 30 7 36 58 63 30 22 45 73 96 143 140 129 150 162 172 195 356 326 340 360 12 353 336 326 330 350 78 96 103 111 107 105 107 108 113 116 117 116 112 114 115 111 108 109 110 106 89 81 82 78 76 61 51 49 58 64 60 71 50 63 76 70 74 73 70 65 85 80 76 60 64 76 98 114 121 125 136 144 152 177 186 183 174 183 189 147 152
271 257 272 61 nan 37 336 356 319 351 58 29 50 69 57 50 27 58 56 107 125 141 146 206 228 251 299 326 339 4 17 352 347 340 341 355 42 61 90 105 104 107 108 114 113 111 117 114 112 111 114 112 109 110 108 104 86 94 84 75 76 63 66 66 75 71 76 71 74 75 75 76 75 78 78 76 87 71 76 71 69 78 92 102 115 124 131 134 140 155 169 172 199 189 153 143 133
263 256 272 87 nan 181 222 327 3 78 342 26 44 60 69 45 84 80 86 78 99 73 16 285 303 321 331 335 347 10 13 358 357 350 353 6 32 53 86 92 100 101 102 109 113 115 114 109 108 111 108 109 107 104 107 102 91 93 91 91 87 85 74 71 72 69 66 72 76 78 78 79 78 78 63 61 70 91 83 74 77 79 87 98 114 131 130 125 136 140 141 177 160 144 146 136 131
nan 258 250 162 242 238 173 309 0 335 334 5 37 45 79 80 112 67 56 103 79 82 53 357 352 337 332 341 357 16 5 1 2 1 2 18 48 80 84 87 90 101 111 121 120 110 106 107 109 109 109 106 101 95 95 85 84 89 94 91 85 79 75 72 70 68 65 72 80 82 82 81 82 84 87 86 94 96 103 110 114 117 122 125 135 133 134 133 142 140 141 144 138 136 135 127 117
nan 274 149 204 226 238 175 240 297 320 324 343 28 18 64 96 78 69 16 36 43 45 23 34 5 333 331 342 1 10 8 2 4 8 8 14 33 69 95 112 116 116 120 116 112 111 105 106 105 106 105 102 94 90 83 77 74 76 81 82 80 81 73 72 71 68 71 78 85 85 85 84 85 85 84 86 90 94 99 108 111 116 118 117 122 129 132 131 133 135 132 129 126 127 122 115 108
nan nan nan nan nan 216 214 236 256 285 310 351 29 58 52 38 44 45 35 65 144 144 15 356 5 336 329 336 346 359 12 6 8 12 9 11 38 80 90 108 102 104 109 112 116 115 110 108 103 104 98 98 92 92 83 79 73 75 76 75 72 75 78 74 67 67 75 81 83 83 80 83 83 82 82 84 86 90 95 102 109 112 111 113 117 121 123 125 127 127 122 119 119 118 114 106 104
nan nan nan nan nan 212 240 250 261 223 313 34 56 3 29 32 23 31 50 90 83 42 55 342 343 327 329 341 352 0 10 9 10 15 18 21 26 50 78 93 103 114 114 113 117 115 109 98 100 99 95 88 87 87 79 73 78 77 74 75 76 76 79 72 66 67 77 78 80 80 83 80 78 78 82 84 86 90 92 95 100 105 108 110 113 114 115 119 120 119 113 109 110 106 106 100 100
nan nan nan nan nan nan 238 259 265 255 168 212 306 7 37 31 44 345 52 61 48 28 11 330 330 333 343 348 343 nan nan nan 11 13 45 60 56 77 106 116 114 114 101 105 113 110 103 101 98 89 85 75 78 76 78 79 79 82 81 77 76 80 81 74 67 75 79 80 79 79 82 80 80 79 81 84 88 91 94 94 95 96 102 105 109 110 110 110 112 109 103 101 102 103 100 99 101
nan nan nan nan nan nan 259 280 289 293 219 242 325 69 79 62 121 26 27 47 51 346 339 333 336 344 359 5 350 nan nan nan 10 13 42 65 64 67 98 108 111 100 95 101 103 105 104 100 88 76 71 69 69 71 82 82 80 81 82 81 78 82 77 73 77 77 80 78 76 79 80 78 77 77 79 86 85 86 89 91 92 93 93 98 101 101 106 105 104 105 104 103 100 100 101 101 102
nan nan nan nan nan nan 283 300 304 298 259 328 346 79 77 85 124 113 15 2 352 333 339 343 350 358 13 11 358 nan nan nan nan nan nan 78 68 79 97 110 106 101 106 97 95 99 97 89 85 75 70 67 73 70 79 84 84 82 82 84 82 81 77 81 85 85 78 73 76 76 79 81 80 79 76 80 86 85 87 88 92 96 96 96 96 96 102 102 103 99 101 102 101 102 105 104 106
nan nan nan nan nan nan 285 295 294 282 250 325 240 213 215 166 146 105 326 336 339 339 346 352 3 5 21 14 nan nan nan nan nan nan nan nan 78 100 110 114 110 115 104 96 97 97 85 72 72 69 63 65 64 70 79 84 84 83 85 86 84 85 83 88 92 86 74 73 80 79 76 77 80 80 75 78 81 81 84 87 90 95 95 98 99 97 98 102 102 101 100 103 105 108 108 110 112
nan nan nan nan nan nan 265 282 289 298 262 267 250 228 178 135 91 131 319 323 335 342 351 358 7 9 19 19 nan nan nan nan nan nan nan nan nan nan nan 110 111 115 119 103 98 87 73 65 64 62 61 64 59 67 76 84 86 87 87 85 87 86 85 91 90 83 74 79 85 80 77 75 77 72 75 74 78 80 80 82 82 87 92 99 102 100 102 105 108 109 110 111 113 114 113 116 116
nan nan nan nan nan nan 263 270 278 288 266 294 270 197 116 65 82 177 319 324 329 340 353 1 11 13 21 27 nan nan nan nan nan nan nan nan nan nan nan nan 112 120 129 129 114 79 82 82 71 66 59 57 57 70 80 86 88 89 89 90 90 91 90 84 88 90 84 83 82 81 81 80 79 78 73 77 83 79 79 79 78 79 87 93 102 102 104 109 111 115 115 115 111 111 113 120 122
nan nan nan nan nan nan 214 254 269 279 258 311 273 212 140 96 75 114 327 331 335 345 355 360 4 16 25 nan nan nan nan nan nan nan nan nan nan nan nan nan 116 120 143 134 99 82 75 73 66 62 51 54 58 68 73 80 86 88 87 89 88 90 91 82 89 97 90 87 88 84 85 84 83 81 80 76 80 80 81 81 78 81 84 93 98 103 107 112 115 115 118 117 116 114 117 120 122
nan nan nan nan nan nan nan 210 274 264 223 300 233 199 152 97 66 322 330 332 334 340 355 358 1 15 nan nan nan nan nan nan nan nan nan nan nan nan nan nan 123 124 118 115 110 99 75 63 56 56 42 46 58 65 77 79 81 89 87 84 87 87 90 89 91 93 95 98 94 91 91 87 84 83 82 82 78 82 84 84 83 84 83 92 97 101 104 102 110 116 119 116 114 112 114 119 121
nan nan nan nan nan nan nan 218 247 250 244 209 213 207 197 189 157 321 337 333 338 340 350 358 2 13 25 nan nan nan nan nan nan nan nan nan nan nan nan nan nan 112 117 118 115 98 83 66 47 51 39 38 54 67 79 88 88 91 89 84 82 87 90 95 100 104 104 102 100 94 95 92 89 88 87 84 81 82 86 88 89 89 90 95 96 100 103 104 106 109 117 117 115 110 113 116 121
nan nan nan nan nan nan nan nan 206 204 240 205 153 189 189 187 295 309 345 343 338 342 345 352 1 15 nan 32 42 nan nan nan nan nan nan nan nan nan nan nan nan nan 124 108 87 61 69 73 62 59 52 41 51 67 81 90 96 99 97 90 93 87 94 106 110 109 102 102 100 96 95 95 92 92 92 91 89 90 93 92 92 92 95 98 100 102 104 108 110 111 110 119 119 119 117 116 120
nan nan nan nan nan nan nan nan nan 204 201 213 168 141 178 196 244 302 353 351 345 349 346 351 354 5 22 28 35 nan nan nan nan nan nan nan nan nan nan nan nan nan nan 118 118 80 62 71 75 66 58 48 49 70 92 99 114 122 109 101 96 96 112 121 117 113 112 111 100 97 92 92 93 96 94 93 94 93 98 98 96 97 99 99 104 104 105 108 109 112 110 118 126 121 113 113 115
nan nan nan nan nan nan nan nan nan 218 209 191 187 155 149 202 212 216 264 357 356 359 351 348 350 355 14 25 30 33 nan nan nan nan nan nan nan nan nan nan nan nan nan nan 167 141 98 70 87 83 76 61 63 95 105 107 123 121 105 117 110 107 117 121 117 115 127 118 106 93 88 91 98 92 93 97 97 99 98 96 93 98 102 102 101 103 103 101 100 106 111 119 127 126 118 114 119
nan nan nan nan nan nan nan nan nan nan nan 195 185 166 176 208 273 238 66 7 9 351 2 7 0 353 7 23 26 28 29 nan nan nan nan nan nan nan nan nan nan nan nan nan 193 159 137 103 86 74 90 80 75 89 101 96 103 112 111 92 95 102 107 118 116 124 128 124 108 94 89 95 99 95 93 96 99 96 98 98 96 98 100 98 98 97 100 100 105 107 113 118 123 128 127 123 120
nan nan nan nan nan nan nan nan nan nan nan nan nan nan 171 206 253 324 81 18 21 11 9 14 10 3 3 16 20 26 32 32 24 29 nan nan nan nan nan nan nan nan nan nan nan 171 151 135 75 80 113 88 78 75 90 92 95 96 86 87 114 113 120 119 121 129 126 126 109 97 96 103 104 97 94 95 102 103 101 99 97 96 97 97 98 103 103 104 106 109 110 118 120 121 123 123 116
nan nan nan nan nan nan nan nan nan nan nan nan nan nan nan 196 222 224 54 45 33 17 10 9 4 5 5 14 20 21 23 27 28 33 21 nan nan nan nan nan nan nan nan nan nan nan nan 133 115 114 96 84 91 97 113 101 110 109 104 106 106 133 129 121 117 120 132 122 110 102 105 108 108 106 99 95 98 102 100 100 100 102 102 102 102 102 104 103 106 108 109 113 119 122 121 123 116
nan nan nan nan nan nan nan nan nan nan nan nan nan nan nan 205 211 197 107 71 62 28 16 3 357 1 2 nan 21 12 13 18 21 28 28 16 nan nan nan nan nan nan nan nan nan nan nan 148 137 123 101 92 103 105 104 116 108 126 153 135 132 126 128 143 152 152 145 142 118 110 111 109 108 106 99 93 98 100 100 103 109 108 105 104 102 102 104 104 105 108 110 113 117 120 122 123 119
nan nan nan nan nan nan nan nan nan nan nan nan nan nan nan 229 227 199 165 144 144 76 16 356 346 14 30 130 66 28 12 17 16 21 30 24 nan nan nan nan nan nan nan nan nan nan nan nan 128 116 118 102 111 111 108 153 167 169 nan 170 171 169 167 167 164 149 138 134 131 117 99 100 100 99 98 93 96 97 103 111 112 109 108 106 108 106 103 99 101 103 102 108 107 110 nan nan 125
nan nan nan nan nan nan nan nan nan nan nan nan nan nan nan 215 234 223 203 165 116 92 19 1 340 336 224 134 64 51 31 26 20 16 19 20 17 nan nan nan nan nan nan nan nan nan nan nan nan nan nan 128 122 115 134 174 156 156 nan nan 154 146 144 143 127 122 131 129 109 108 114 102 92 94 96 93 93 101 105 109 111 110 110 110 108 108 108 108 106 105 98 97 102 110 nan nan 125
nan nan nan nan nan nan nan nan nan nan nan nan nan nan nan 211 201 208 203 154 104 118 45 17 336 330 346 104 97 63 42 39 nan 25 17 17 22 nan nan nan nan nan nan nan nan nan nan nan nan nan nan 142 148 157 143 158 164 136 nan 87 103 103 109 122 129 133 129 125 131 124 117 113 101 90 91 90 91 97 104 107 107 109 110 110 111 110 110 107 106 103 105 104 100 111 119 nan nan
nan nan nan nan nan nan nan nan nan nan nan nan nan nan nan 215 192 205 205 177 162 139 92 51 30 354 7 73 67 40 56 56 nan nan 22 16 12 18 nan nan nan nan nan nan nan nan nan nan nan nan nan 154 164 184 152 116 124 127 nan nan nan 117 101 102 115 125 134 138 137 131 140 123 110 101 94 91 92 95 101 103 106 110 111 110 113 109 110 112 112 115 112 107 112 109 104 nan nan
nan nan nan nan nan nan nan nan nan nan nan nan nan nan nan nan 203 222 219 200 178 143 110 64 48 29 12 20 14 14 40 52 44 nan nan nan 10 nan nan nan nan nan nan nan nan nan nan nan nan nan nan 167 179 213 192 108 118 116 nan nan nan 124 131 129 129 133 134 142 139 148 139 127 114 106 102 95 95 95 97 101 104 106 109 112 115 116 117 117 111 113 117 118 115 113 109 114 nan
nan nan nan nan nan nan nan nan nan nan nan nan nan nan nan nan nan 224 225 212 189 133 93 65 52 40 23 340 323 2 104 128 59 31 nan nan nan nan nan nan nan nan nan nan nan nan nan nan nan nan nan 160 190 219 254 84 107 148 nan nan nan nan 147 nan nan 126 130 141 134 132 129 127 114 108 105 106 103 100 97 101 101 101 105 112 118 112 114 114 114 115 111 113 120 121 119 120 nan
nan nan nan nan nan nan nan nan nan nan nan nan nan nan nan nan nan 236 231 210 189 145 143 133 125 115 70 33 350 329 320 94 87 22 23 nan nan nan nan nan nan nan nan nan nan nan nan nan nan nan nan nan 184 218 246 68 118 147 nan nan nan nan nan nan nan nan 137 141 123 120 119 109 113 101 109 111 109 109 106 103 96 98 109 115 113 111 106 108 112 114 118 126 128 124 121 122 128
nan nan nan nan nan nan nan nan nan nan nan nan nan nan nan nan nan nan 231 218 58 21 346 3 22 41 42 29 12 350 328 177 107 19 11 20 31 27 nan nan nan nan nan nan nan nan 187 nan nan nan nan nan 165 190 206 172 153 138 150 nan nan nan nan nan nan nan 111 104 107 109 117 124 111 106 111 116 111 109 109 107 101 101 105 110 106 107 111 116 122 127 133 127 131 132 132 134 132
nan nan nan nan nan nan nan nan nan nan nan nan nan nan nan nan nan nan 231 189 168 202 196 245 19 43 32 17 9 343 309 298 352 126 6 16 26 20 8 nan nan nan nan nan nan nan 237 173 nan nan nan nan 163 177 177 188 180 146 151 nan nan nan nan nan nan nan nan 107 107 112 117 104 107 103 102 99 99 90 99 103 103 99 103 106 107 116 121 131 132 128 129 133 137 134 128 130 127
nan nan nan nan nan nan nan nan nan nan nan nan nan nan nan nan nan nan nan 210 199 244 263 260 236 155 153 34 11 342 314 312 305 272 104 31 20 15 5 nan nan nan nan nan nan nan 325 236 nan nan nan 166 176 177 176 183 170 156 164 nan nan nan nan nan nan nan nan nan 117 110 105 100 96 86 91 91 96 99 101 98 100 97 100 106 112 112 118 132 139 127 134 138 135 133 142 135 126
nan nan nan nan nan nan nan nan nan nan nan nan nan nan nan nan nan nan nan nan 217 225 249 253 246 211 191 188 181 175 211 264 283 275 73 34 5 352 349 354 nan nan nan nan nan nan 4 357 334 45 137 181 197 188 191 181 175 167 170 nan nan nan nan nan nan nan nan nan nan 120 118 118 109 106 100 103 117 112 106 107 101 97 99 106 116 119 124 146 153 157 153 145 148 152 144 141 135
nan nan nan nan nan nan nan nan nan nan nan nan nan nan nan nan nan nan nan nan nan 214 234 247 250 245 230 221 207 187 179 194 224 198 95 64 346 317 321 342 nan nan nan nan nan nan 16 15 4 8 7 248 223 213 200 197 185 178 173 177 nan nan 171 nan nan nan nan nan nan 125 121 120 122 130 126 132 122 113 103 99 100 95 101 106 114 118 128 144 157 161 162 164 150 161 152 146 139
nan nan nan nan nan nan nan nan nan nan nan nan nan nan nan nan nan nan nan nan nan nan 208 229 244 260 265 249 231 211 195 195 196 174 104 24 236 267 304 329 335 342 nan nan nan nan 15 13 11 14 18 254 261 252 235 217 206 189 175 176 nan 181 170 163 nan nan nan nan nan nan 131 129 145 144 134 139 125 121 105 97 92 95 103 113 120 125 129 136 151 157 158 158 147 156 158 144 148
nan nan nan nan nan nan nan nan nan nan nan nan nan nan nan nan nan nan nan nan nan nan nan nan 205 243 266 268 239 227 224 210 194 191 203 230 236 265 281 306 347 354 354 nan nan nan nan 13 11 10 9 6 228 242 243 235 230 210 191 179 176 174 176 176 178 nan nan nan nan nan 157 164 140 134 142 144 144 115 110 101 97 97 107 122 119 129 135 137 152 151 153 149 147 162 158 161 159
nan nan nan nan nan nan nan nan nan nan nan nan nan nan nan nan nan nan 210 nan nan nan nan nan nan 200 227 250 238 226 242 222 226 237 241 244 255 277 296 323 345 352 340 331 nan nan nan 22 17 10 7 6 352 238 233 224 228 221 211 197 188 184 185 186 186 nan nan nan nan nan 170 154 162 167 163 161 151 123 107 105 103 100 103 105 130 129 137 140 145 142 154 148 161 171 166 163 164
nan nan nan nan nan nan nan nan nan nan nan nan nan nan nan nan nan 212 211 nan nan nan nan nan nan nan 193 199 218 262 258 241 247 262 273 285 308 308 310 299 307 321 302 292 306 313 356 16 17 21 13 3 356 330 263 245 231 223 223 217 204 197 194 194 192 191 nan nan nan nan 191 186 167 181 173 169 153 127 102 86 93 90 89 96 110 123 131 133 135 126 138 144 156 174 168 164 167
nan nan nan nan nan nan nan nan nan nan nan nan nan nan nan nan nan 209 nan 214 nan nan nan nan nan nan nan 196 211 247 271 261 269 290 289 289 278 291 301 273 261 251 243 249 266 303 328 360 27 19 10 8 7 3 306 242 233 226 230 233 224 212 202 201 198 194 nan nan nan nan nan 197 203 188 192 179 144 118 98 81 78 81 79 83 99 114 130 132 125 120 125 133 154 155 153 153 166
nan nan nan nan nan nan nan nan nan nan nan nan nan nan nan nan nan 209 212 211 213 nan nan nan nan nan nan nan 209 205 220 239 299 314 299 280 254 232 249 255 244 244 249 262 260 259 279 358 31 20 18 16 10 6 349 264 231 225 229 232 233 225 216 210 204 202 198 194 nan nan nan 213 211 196 207 186 140 127 119 94 85 82 84 89 103 117 129 132 116 114 119 135 130 130 132 136 153